Windsor, CA

3:19 AM PST on February 26, 2017 (GMT -0800)
Sonoma County

Weather History for KSTS - June, 2012

Change the Weather History Date:

Tuesday, June 12, 2012

  Actual Average Record
Temperature  
Mean Temperature 72 °F 65 °F  
Max Temperature 92 °F 81 °F 96 °F (2008)
Min Temperature 51 °F 50 °F 42 °F (2013)
Degree Days  
Heating Degree Days 0    
Month to date heating degree days 20  
Since 1 June heating degree days 20  
Since 1 July heating degree days 2882  
Cooling Degree Days 7    
Month to date cooling degree days 37  
Year to date cooling degree days 66  
Since 1 June cooling degree days 37  
Growing Degree Days 22 (Base 50)    
Moisture  
Dew Point 49 °F    
Average Humidity 54    
Maximum Humidity 83    
Minimum Humidity 24    
Precipitation  
Precipitation 0.00 in 0.00 in 0.03 in (1992)
Month to date precipitation 0.02 0.12  
Year to date precipitation 18.79 21.97  
Since 1 July precipitation 23.25  
Sea Level Pressure  
Sea Level Pressure 29.88 in    
Wind  
Wind Speed 10 mph (NW)    
Max Wind Speed 23 mph    
Max Gust Speed 32 mph    
Visibility 10 miles    
Events      
T = Trace of Precipitation, MM = Missing Value Source: NWS Daily Summary

Daily Weather History Graph

Daily Weather History Graph

Search for Another Location

Airport or City:

Trip Planner

Search our weather history database for the weather conditions in past years. The results will help you decide how hot, cold, wet, or windy it might be!

Date:

Astronomy

Jun. 12, 2012 Rise Set
Actual Time 5:46 AM PDT 8:36 PM PDT
Civil Twilight 5:14 AM PDT 9:07 PM PDT
Nautical Twilight 4:35 AM PDT 9:47 PM PDT
Astronomical Twilight 3:49 AM PDT 10:33 PM PDT
Moon 1:31 AM PDT (6/12) 2:33 PM PDT (6/12)
Length of Visible Light 15h 53m
Length of Day
14h 49m
Last Quarter, 37% of the Moon is Illuminated
Jun 12
Last Quarter
Jun 19
New
Jun 26
First Quarter
Jul 3
Full
Jul 10
Last Quarter

Hourly Weather History & Observations

Time (PDT) Temp. Heat Index Dew Point Humidity Pressure Visibility Wind Dir Wind Speed Gust Speed Precip Events Conditions
12:53 AM 57.9 °F - 46.9 °F 67% 29.90 in 10.0 mi Calm Calm - N/A   Clear
1:53 AM 55.9 °F - 46.9 °F 72% 29.89 in 10.0 mi South 3.5 mph - N/A   Clear
2:53 AM 53.1 °F - 46.0 °F 77% 29.89 in 10.0 mi Calm Calm - N/A   Clear
3:53 AM 54.0 °F - 46.9 °F 77% 29.89 in 10.0 mi Calm Calm - N/A   Clear
4:53 AM 52.0 °F - 46.0 °F 80% 29.90 in 10.0 mi Calm Calm - N/A   Clear
5:53 AM 52.0 °F - 46.9 °F 83% 29.91 in 10.0 mi Calm Calm - N/A   Clear
6:53 AM 54.0 °F - 48.0 °F 80% 29.93 in 10.0 mi SE 3.5 mph - N/A   Clear
7:53 AM 61.0 °F - 50.0 °F 67% 29.93 in 10.0 mi Calm Calm - N/A   Clear
8:53 AM 68.0 °F - 50.0 °F 52% 29.94 in 10.0 mi Calm Calm - N/A   Partly Cloudy
9:53 AM 75.0 °F - 50.0 °F 41% 29.93 in 10.0 mi South 4.6 mph - N/A   Clear
10:53 AM 84.9 °F - 52.0 °F 32% 29.91 in 10.0 mi North 8.1 mph - N/A   Clear
11:53 AM 88.0 °F - 52.0 °F 29% 29.89 in 10.0 mi NNW 15.0 mph 20.7 mph N/A   Clear
12:53 PM 90.0 °F 87.7 °F 54.0 °F 29% 29.88 in 10.0 mi NW 15.0 mph 20.7 mph N/A   Clear
1:53 PM 90.0 °F 87.7 °F 54.0 °F 29% 29.87 in 10.0 mi WNW 17.3 mph 24.2 mph N/A   Clear
2:53 PM 91.0 °F - 50.0 °F 24% 29.87 in 10.0 mi WNW 19.6 mph 27.6 mph N/A   Clear
3:53 PM 90.0 °F - 48.0 °F 24% 29.86 in 10.0 mi NW 18.4 mph 31.1 mph N/A   Clear
4:53 PM 89.1 °F - 48.0 °F 24% 29.84 in 10.0 mi NW 20.7 mph 28.8 mph N/A   Clear
5:53 PM 87.1 °F - 50.0 °F 28% 29.83 in 10.0 mi NNW 15.0 mph 24.2 mph N/A   Clear
6:53 PM 82.9 °F - 51.1 °F 33% 29.84 in 10.0 mi NNW 17.3 mph 25.3 mph N/A   Clear
7:53 PM 78.1 °F - 50.0 °F 37% 29.85 in 10.0 mi NNW 17.3 mph 23.0 mph N/A   Clear
8:53 PM 73.0 °F - 48.9 °F 42% 29.86 in 10.0 mi NNW 15.0 mph 25.3 mph N/A   Clear
9:53 PM 70.0 °F - 48.0 °F 46% 29.87 in 10.0 mi NNW 16.1 mph 24.2 mph N/A   Clear
10:53 PM 68.0 °F - 48.0 °F 49% 29.87 in 10.0 mi NW 10.4 mph - N/A   Clear
11:53 PM 62.1 °F - 50.0 °F 65% 29.85 in 10.0 mi SSE 5.8 mph - N/A   Clear